• In Lithuania
  • List of Countries
  • For 7 days
  • Water Temperature
  • Satellite Maps
  • Weather Map
  • Weather Widgets
  • user-avatar
    Login

    Hourly Weather Bezopasnoe

    Today, 22 August, Wednesday

    Time Temperature Precipitation Wind Pressure Humidity
    00:00 +22°C° 0 mm 3 mps 751 mmHg 61%
    01:00 +21°C° 0 mm 3 mps 751 mmHg 64%
    02:00 +21°C° 0 mm 3 mps 751 mmHg 67%
    03:00 +20°C° 0 mm 3 mps 751 mmHg 70%
    04:00 +20°C° 0 mm 2 mps 751 mmHg 72%
    05:00 +20°C° 0 mm 2 mps 751 mmHg 74%
    06:00 +19°C° 0 mm 2 mps 752 mmHg 76%
    07:00 +23°C° 0 mm 2 mps 752 mmHg 67%
    08:00 +25°C° 0 mm 2 mps 752 mmHg 58%
    09:00 +28°C° 0 mm 1 mps 752 mmHg 50%
    10:00 +29°C° 0 mm 1 mps 751 mmHg 44%
    11:00 +31°C° 0 mm 1 mps 751 mmHg 38%
    12:00 +34°C° 0 mm 2 mps 751 mmHg 32%
    13:00 +34°C° 0 mm 2 mps 751 mmHg 30%
    14:00 +35°C° 0 mm 2 mps 750 mmHg 28%
    15:00 +35°C° 0 mm 3 mps 750 mmHg 26%
    16:00 +35°C° 0 mm 3 mps 750 mmHg 27%
    17:00 +34°C° 0 mm 3 mps 750 mmHg 29%
    18:00 +34°C° 0 mm 2 mps 750 mmHg 30%
    19:00 +31°C° 0 mm 2 mps 751 mmHg 33%
    20:00 +29°C° 0 mm 2 mps 751 mmHg 37%
    21:00 +27°C° 0 mm 2 mps 752 mmHg 40%
    22:00 +26°C° 0 mm 2 mps 752 mmHg 42%
    23:00 +25°C° 0 mm 2 mps 752 mmHg 44%

    Tomorrow, 23 August, Thursday

    Time Temperature Precipitation Wind Pressure Humidity
    00:00 +25°C° 0 mm 2 mps 752 mmHg 46%
    01:00 +24°C° 0 mm 3 mps 753 mmHg 51%
    02:00 +22°C° 0 mm 3 mps 753 mmHg 56%
    03:00 +22°C° 0 mm 3 mps 753 mmHg 61%
    04:00 +21°C° 0 mm 3 mps 754 mmHg 62%
    05:00 +21°C° 0 mm 4 mps 754 mmHg 64%
    06:00 +20°C° 0 mm 4 mps 754 mmHg 65%
    07:00 +22°C° 0 mm 4 mps 755 mmHg 58%
    08:00 +25°C° 0 mm 5 mps 755 mmHg 51%
    09:00 +26°C° 0 mm 6 mps 755 mmHg 43%
    10:00 +28°C° 0 mm 6 mps 755 mmHg 39%
    11:00 +29°C° 0 mm 6 mps 755 mmHg 35%
    12:00 +30°C° 0 mm 6 mps 755 mmHg 31%
    13:00 +32°C° 0 mm 6 mps 754 mmHg 30%
    14:00 +32°C° 0 mm 6 mps 754 mmHg 29%
    15:00 +33°C° 0 mm 6 mps 754 mmHg 27%
    16:00 +32°C° 0 mm 5 mps 754 mmHg 27%
    17:00 +30°C° 0 mm 5 mps 753 mmHg 27%
    18:00 +29°C° 0 mm 5 mps 753 mmHg 28%
    19:00 +28°C° 0 mm 5 mps 754 mmHg 27%
    20:00 +26°C° 0 mm 5 mps 754 mmHg 27%
    21:00 +25°C° 0 mm 5 mps 755 mmHg 26%
    22:00 +23°C° 0 mm 5 mps 755 mmHg 26%
    23:00 +23°C° 0 mm 5 mps 754 mmHg 25%

    Day after tomorrow, 24 August, Friday

    Time Temperature Precipitation Wind Pressure Humidity
    00:00 +22°C° 0 mm 5 mps 754 mmHg 24%
    01:00 +22°C° 0 mm 5 mps 754 mmHg 25%
    02:00 +21°C° 0 mm 5 mps 754 mmHg 26%
    03:00 +21°C° 0 mm 6 mps 754 mmHg 27%
    04:00 +21°C° 0 mm 6 mps 754 mmHg 29%
    05:00 +21°C° 0 mm 6 mps 754 mmHg 31%
    06:00 +20°C° 0 mm 6 mps 754 mmHg 33%
    07:00 +22°C° 0 mm 7 mps 754 mmHg 33%
    08:00 +24°C° 0 mm 7 mps 754 mmHg 34%
    09:00 +27°C° 0 mm 8 mps 754 mmHg 34%
    10:00 +28°C° 0 mm 8 mps 754 mmHg 31%
    11:00 +29°C° 0 mm 8 mps 753 mmHg 29%
    12:00 +31°C° 0 mm 9 mps 753 mmHg 26%
    13:00 +32°C° 0 mm 8 mps 753 mmHg 25%
    14:00 +32°C° 0 mm 8 mps 752 mmHg 25%
    15:00 +33°C° 0 mm 8 mps 752 mmHg 24%
    16:00 +32°C° 0 mm 8 mps 752 mmHg 25%
    17:00 +30°C° 0 mm 7 mps 752 mmHg 25%
    18:00 +29°C° 0 mm 7 mps 751 mmHg 26%
    19:00 +28°C° 0 mm 7 mps 752 mmHg 27%
    20:00 +27°C° 0 mm 6 mps 752 mmHg 28%
    21:00 +24°C° 0 mm 6 mps 752 mmHg 29%
    22:00 +24°C° 0 mm 6 mps 752 mmHg 33%
    23:00 +23°C° 0 mm 6 mps 752 mmHg 38%

    25 August, Saturday

    Time Temperature Precipitation Wind Pressure Humidity
    00:00 +22°C° 0 mm 6 mps 752 mmHg 43%
    01:00 +22°C° 0 mm 6 mps 752 mmHg 47%
    02:00 +21°C° 0 mm 6 mps 752 mmHg 51%
    03:00 +20°C° 0 mm 6 mps 751 mmHg 55%
    04:00 +20°C° 0 mm 6 mps 752 mmHg 56%
    05:00 +20°C° 0 mm 6 mps 752 mmHg 57%
    06:00 +19°C° 0 mm 6 mps 752 mmHg 58%
    07:00 +21°C° 0 mm 7 mps 752 mmHg 54%
    08:00 +23°C° 0 mm 7 mps 752 mmHg 50%
    09:00 +24°C° 0 mm 8 mps 752 mmHg 45%
    10:00 +27°C° 0 mm 8 mps 752 mmHg 43%
    11:00 +28°C° 0 mm 8 mps 752 mmHg 40%
    12:00 +31°C° 0 mm 8 mps 751 mmHg 38%
    13:00 +31°C° 0 mm 8 mps 751 mmHg 37%
    14:00 +32°C° 0 mm 8 mps 751 mmHg 36%
    15:00 +33°C° 0 mm 8 mps 750 mmHg 35%
    16:00 +32°C° 0 mm 7 mps 750 mmHg 35%
    17:00 +32°C° 0 mm 7 mps 750 mmHg 36%
    18:00 +30°C° 0 mm 7 mps 750 mmHg 36%
    19:00 +29°C° 0 mm 7 mps 750 mmHg 37%
    20:00 +28°C° 0 mm 7 mps 750 mmHg 38%
    21:00 +26°C° 0 mm 7 mps 750 mmHg 39%
    22:00 +26°C° 0 mm 7 mps 750 mmHg 40%
    23:00 +24°C° 0 mm 7 mps 750 mmHg 41%

    26 August, Sunday

    Time Temperature Precipitation Wind Pressure Humidity
    00:00 +23°C° 0 mm 7 mps 750 mmHg 42%
    01:00 +22°C° 0 mm 6 mps 750 mmHg 44%
    02:00 +22°C° 0 mm 6 mps 750 mmHg 45%
    03:00 +21°C° 0 mm 6 mps 750 mmHg 46%
    04:00 +21°C° 0 mm 6 mps 751 mmHg 48%
    05:00 +21°C° 0 mm 6 mps 751 mmHg 49%
    06:00 +20°C° 0 mm 6 mps 751 mmHg 51%
    07:00 +22°C° 0 mm 7 mps 751 mmHg 47%
    08:00 +24°C° 0 mm 8 mps 751 mmHg 43%
    09:00 +27°C° 0 mm 9 mps 750 mmHg 39%
    10:00 +29°C° 0 mm 9 mps 750 mmHg 36%
    11:00 +31°C° 0 mm 9 mps 750 mmHg 33%
    12:00 +33°C° 0 mm 9 mps 749 mmHg 31%
    13:00 +33°C° 0 mm 9 mps 749 mmHg 30%
    14:00 +34°C° 0 mm 9 mps 748 mmHg 29%
    15:00 +35°C° 0 mm 9 mps 748 mmHg 27%
    16:00 +34°C° 0 mm 9 mps 748 mmHg 29%
    17:00 +33°C° 0 mm 8 mps 748 mmHg 30%
    18:00 +32°C° 0 mm 8 mps 748 mmHg 31%
    19:00 +30°C° 0 mm 7 mps 748 mmHg 33%
    20:00 +28°C° 0 mm 7 mps 749 mmHg 36%
    21:00 +27°C° 0 mm 7 mps 749 mmHg 38%
    22:00 +26°C° 0 mm 7 mps 749 mmHg 41%
    23:00 +24°C° 0 mm 7 mps 749 mmHg 45%

    27 August, Monday

    Time Temperature Precipitation Wind Pressure Humidity
    00:00 +23°C° 0 mm 7 mps 749 mmHg 48%
    01:00 +23°C° 0 mm 7 mps 749 mmHg 52%
    02:00 +22°C° 0 mm 7 mps 749 mmHg 55%
    03:00 +22°C° 0 mm 6 mps 749 mmHg 58%
    04:00 +21°C° 0 mm 6 mps 749 mmHg 58%
    05:00 +21°C° 0 mm 6 mps 749 mmHg 59%
    06:00 +21°C° 0 mm 6 mps 749 mmHg 59%
    07:00 +22°C° 0 mm 6 mps 749 mmHg 54%
    08:00 +24°C° 0 mm 7 mps 749 mmHg 49%
    09:00 +27°C° 0 mm 7 mps 749 mmHg 44%
    10:00 +29°C° 0 mm 7 mps 748 mmHg 40%
    11:00 +32°C° 0 mm 7 mps 748 mmHg 37%
    12:00 +33°C° 0 mm 7 mps 748 mmHg 34%
    13:00 +34°C° 0 mm 7 mps 748 mmHg 32%
    14:00 +35°C° 0 mm 7 mps 747 mmHg 30%
    15:00 +36°C° 0 mm 7 mps 747 mmHg 29%
    16:00 +35°C° 0 mm 6 mps 747 mmHg 30%
    17:00 +35°C° 0 mm 6 mps 747 mmHg 31%
    18:00 +34°C° 0 mm 5 mps 747 mmHg 33%
    19:00 +33°C° 0 mm 6 mps 748 mmHg 35%
    20:00 +30°C° 0 mm 6 mps 748 mmHg 37%
    21:00 +29°C° 0 mm 6 mps 748 mmHg 39%
    22:00 +28°C° 0 mm 6 mps 748 mmHg 42%
    23:00 +27°C° 0 mm 6 mps 748 mmHg 44%
    Show more